Details for UPS at KRFD




Go Back


Latest METAR
Local Time

KRFD 160932Z 13005KT 1SM R01/4500VP6000FT BR OVC002 21/20 A2993 RMK AO2 T02060200
16/08/2018, 04:49:30

Description
Results
UPS Logo
Number of Pilots based at KRFD
0 Pilots Based here
Number of UPS Flights Departed from KRFD
0 Flights Departed
Number of UPS Flights Arrived at KRFD
0 Flights Arrived
Number of UPS Schedules Departing from KRFD
167 Schedules
Number of UPS Schedules Arriving at KRFD
160 Schedules
Number of UPS Schedules Departing from KRFD availible today
46 Schedules Today
Number of UPS Schedules Arriving at KRFD availible today
40 Schedules Today
Average Landing Rate at KRFD
0 fpm
UPS Average Landing Rate at KRFD
0 fpm
Total Fuel Purchased at KRFD by UPS
0.00 kgs / 0.00 lbs

Pilots Based at KRFD


Pilot ID
Pilot Name
Pilot Rank
No. of Flights
No. of Flying Hours
There are no pilots assigned to this hub!   Will you be the first?
Content